Theta_e
320 323 326 330 331 329 327 327 329 331 331 334 333 330 331 331 332 331 326 325 325 327 327 327 327 327 327 327 326 325 320 317 318 319 319 320 320 319 319 320 322 324 324 323 324 329 331 331 333 334 335 335 334 335 335 335 334 334 334 334 334 333 332 333 333 333 333 332 331 331 331 331 330 330 330 329 329 328 328 327 328 328 327 326 326 325
321 325 327 326 327 326 327 328 329 330 331 332 332 331 331 332 332 327 323 322 323 325 326 327 327 327 327 326 326 327 325 322 318 318 318 319 320 321 319 320 321 321 322 324 324 325 329 331 332 334 334 334 334 334 335 334 334 334 334 334 334 333 332 332 332 332 333 333 332 331 331 331 331 331 331 331 330 329 329 329 329 329 328 328 327 326
324 326 325 324 325 325 327 327 328 329 330 332 333 333 332 333 332 323 317 318 319 321 325 325 325 325 325 325 325 325 325 324 323 321 321 320 320 321 320 320 320 321 324 327 326 324 327 331 332 334 334 334 334 334 334 334 334 334 334 333 333 333 333 332 332 332 332 332 332 332 332 332 331 332 332 331 331 330 330 330 330 330 329 329 328 327
325 325 324 324 325 326 328 327 328 329 330 333 333 333 332 333 335 326 318 317 317 319 323 322 322 322 322 323 324 323 322 322 323 323 323 323 323 322 322 322 321 321 323 327 328 326 326 330 332 333 333 333 333 334 334 334 334 334 334 333 333 333 333 332 332 331 331 332 332 332 332 332 332 332 332 332 331 331 331 331 330 330 330 329 329 328
325 325 323 325 325 327 329 328 329 329 331 334 333 334 333 333 334 327 321 318 316 318 319 319 324 325 324 326 325 323 322 320 321 322 322 323 323 323 324 325 324 323 322 324 326 324 323 327 331 332 333 333 333 333 334 333 333 333 333 333 333 332 332 332 332 331 331 331 332 332 332 332 332 332 332 332 332 332 331 331 331 330 330 330 329 328
325 325 324 326 326 327 330 329 331 331 331 333 333 333 332 334 331 324 322 323 323 325 321 321 332 334 329 328 328 327 325 323 322 322 321 321 322 322 323 324 326 326 324 323 323 321 320 323 328 330 331 332 332 332 332 332 332 333 333 333 332 332 332 332 332 331 331 331 331 331 332 332 332 332 332 332 332 332 332 332 331 331 330 330 329 328
326 325 325 327 327 329 331 330 331 331 331 332 332 331 331 333 331 325 325 329 331 331 323 321 332 335 329 326 327 328 328 327 326 325 323 321 320 321 320 320 322 324 325 324 323 321 318 319 323 326 328 331 331 330 331 332 332 332 332 332 332 332 332 331 332 332 331 330 330 331 331 332 332 332 332 332 332 332 332 332 332 331 330 330 329 329
326 327 327 328 328 330 330 330 330 330 331 332 332 332 332 331 332 329 326 329 331 329 322 320 325 329 328 324 324 325 326 326 327 327 326 323 321 320 319 319 320 321 322 324 324 323 320 318 319 323 325 327 327 327 329 331 331 331 331 332 332 332 332 332 332 332 331 330 330 330 331 331 331 331 331 331 332 332 332 332 332 331 331 330 329 329
326 328 329 328 329 330 329 329 330 329 330 330 329 331 332 330 331 329 326 328 329 329 328 323 322 327 329 325 323 325 324 324 325 325 327 325 322 321 320 318 319 319 320 320 321 322 319 317 318 321 323 324 324 326 328 329 329 330 331 331 331 331 332 332 332 332 331 331 330 330 330 331 331 331 331 331 332 332 332 333 332 332 331 331 330 329
325 326 327 327 328 328 328 329 330 329 328 327 328 328 329 328 327 326 327 327 327 328 329 326 324 328 331 327 324 327 325 324 324 324 326 325 323 322 320 320 320 320 321 320 320 319 316 315 317 318 319 321 323 325 326 327 328 330 330 331 331 331 331 332 332 332 332 331 331 330 330 330 330 331 331 331 331 332 332 332 332 332 332 331 331 330
320 321 324 326 326 326 327 328 330 330 326 325 326 325 326 326 325 325 325 325 327 328 329 328 324 326 331 330 325 326 326 324 324 324 324 325 325 324 321 321 321 321 323 323 321 319 315 315 316 317 317 319 321 323 324 326 328 329 330 331 330 330 331 331 331 332 332 332 332 331 330 330 330 330 330 331 331 331 332 332 332 332 332 332 331 331
320 322 325 325 324 325 327 326 327 326 324 325 324 324 326 325 324 325 324 325 330 330 327 326 325 325 329 331 327 327 326 324 324 324 324 325 327 326 324 323 322 322 324 324 325 323 319 318 317 315 316 316 318 320 322 323 325 327 329 330 330 331 331 331 331 331 332 332 332 332 331 330 330 330 330 330 331 331 331 331 331 331 331 331 331 331
322 324 324 324 322 323 326 325 324 323 323 325 324 325 330 329 327 329 327 327 330 329 322 322 326 327 326 326 325 326 324 322 323 323 323 325 325 328 328 326 324 325 326 327 327 326 324 322 316 313 314 314 315 316 318 319 321 324 326 328 329 330 330 331 331 331 331 332 332 332 331 331 330 331 331 330 330 330 330 330 330 330 330 330 331 331
323 324 324 322 321 321 324 324 323 323 323 323 323 326 331 330 329 331 330 329 331 327 319 320 326 329 326 324 323 323 322 322 323 322 324 324 322 325 328 327 326 326 326 327 328 328 329 323 314 310 312 312 312 313 314 315 316 319 321 324 326 328 329 330 331 331 331 331 332 332 332 332 331 331 330 331 331 330 330 329 329 330 330 330 330 330
326 327 323 321 322 321 323 323 323 323 322 323 323 326 330 330 331 332 331 331 333 326 319 320 327 331 329 325 322 321 321 321 321 321 324 324 322 323 325 325 326 325 324 328 330 332 330 320 313 312 312 311 311 311 311 311 312 313 315 318 321 322 324 326 328 329 330 330 331 331 331 331 331 330 330 330 330 330 330 329 329 329 330 329 329 329
326 327 321 320 322 320 323 324 321 322 323 324 324 325 328 329 328 329 327 326 329 328 322 323 328 329 325 322 320 321 321 319 319 320 322 324 323 322 323 323 326 324 323 326 329 332 329 318 315 316 314 312 312 311 310 310 310 310 311 312 315 317 319 321 323 325 327 328 329 330 330 330 330 330 330 329 329 330 330 329 329 329 329 330 329 329
326 326 321 319 319 318 323 324 320 323 325 324 325 325 325 326 325 326 326 321 322 329 327 324 326 324 319 321 321 321 321 318 318 319 319 321 322 322 324 326 327 325 323 325 329 333 329 319 315 315 314 314 314 313 312 311 310 310 310 311 312 314 316 317 319 322 324 325 327 328 329 329 329 329 329 329 328 328 328 328 329 329 329 329 329 329
325 323 320 318 319 318 322 324 320 323 324 323 325 324 324 326 324 322 324 324 324 328 328 325 325 324 321 324 324 321 321 319 317 318 317 319 321 322 324 327 328 327 325 327 330 332 326 317 314 314 314 314 314 313 313 312 312 311 310 311 311 312 313 314 316 319 321 323 325 326 327 327 328 328 328 328 327 327 327 327 328 328 328 328 328 328
323 322 319 318 319 319 320 323 322 322 322 322 324 322 323 328 326 322 323 328 328 326 328 328 327 325 322 322 322 322 321 319 317 317 317 318 320 320 322 326 327 327 329 330 330 329 326 318 313 314 314 313 314 314 313 313 312 311 310 310 310 311 311 312 314 316 318 320 322 323 324 325 325 325 326 326 326 326 326 326 327 327 328 328 328 327
321 324 320 317 318 318 319 322 323 322 321 320 321 322 322 324 326 324 322 326 329 327 328 329 326 328 325 320 321 323 321 318 317 318 318 318 318 319 321 325 327 329 332 334 330 330 329 319 312 313 313 313 314 313 314 313 312 311 310 310 311 312 313 313 314 316 317 319 320 321 322 322 323 323 324 324 325 325 326 326 327 327 327 328 328 327
322 323 321 317 316 318 321 321 322 322 320 318 321 322 322 321 324 325 322 323 326 325 328 327 326 330 326 318 320 321 319 319 319 319 322 322 321 322 324 328 332 333 334 335 330 329 328 317 312 313 314 313 314 313 313 312 311 310 309 309 310 311 313 314 315 316 318 319 320 320 321 322 322 323 323 323 324 325 325 326 326 326 327 327 328 328
323 323 320 316 316 318 320 319 320 322 320 318 320 321 322 321 322 324 325 323 321 323 326 325 326 330 326 318 319 319 319 320 320 322 326 326 325 325 326 330 335 333 332 333 328 327 325 316 312 314 314 313 313 311 311 311 310 310 310 309 309 309 310 311 312 313 315 317 319 320 320 321 321 321 322 323 323 324 324 325 326 326 326 327 327 327
324 321 318 317 317 318 318 318 319 322 321 318 319 321 322 321 321 323 326 325 322 323 322 321 324 329 326 321 320 320 322 322 322 325 326 324 323 323 324 328 332 329 326 326 325 324 321 314 312 314 313 312 312 311 311 310 310 311 311 311 311 310 310 310 310 310 311 312 315 317 318 319 319 319 319 320 321 322 323 324 324 325 325 326 326 326
323 319 317 317 317 316 316 316 316 318 319 319 319 319 321 321 320 321 322 323 323 323 321 320 323 325 324 324 323 324 325 322 322 323 323 322 321 322 324 327 329 327 323 323 323 322 318 312 312 313 312 312 312 311 311 311 311 312 312 312 312 312 312 311 311 311 311 311 311 313 314 315 316 316 316 316 316 318 320 321 321 322 322 323 323 324
324 320 318 318 319 319 318 317 316 315 317 319 319 318 319 320 321 322 320 319 322 326 324 322 324 323 321 322 321 320 320 318 318 318 319 323 324 323 323 324 325 326 325 324 323 322 320 317 314 311 311 312 312 311 312 312 312 312 312 313 313 313 313 312 312 312 312 312 311 311 312 312 312 313 314 314 314 314 316 317 318 319 320 320 321 322
324 322 319 320 322 322 322 321 320 318 316 317 318 318 319 320 321 322 320 319 322 326 324 322 322 320 317 316 316 317 316 315 315 315 316 320 323 324 324 323 324 325 325 326 325 324 322 322 318 311 310 312 312 312 312 312 312 312 312 313 313 313 313 313 313 313 312 312 312 312 312 311 311 311 312 312 312 311 312 313 315 317 318 319 320 321
324 322 319 321 322 322 322 322 321 319 318 318 319 319 319 320 321 321 321 320 320 322 324 322 320 319 318 316 316 317 316 315 315 315 316 317 319 322 324 324 325 326 326 328 328 327 326 326 324 316 311 313 314 313 313 312 312 312 312 313 313 312 312 312 312 312 312 312 312 312 311 311 311 311 311 311 311 310 310 310 311 313 315 317 319 320
326 323 321 321 322 321 321 322 320 319 319 318 319 319 319 319 321 321 321 320 319 320 322 321 319 320 319 317 317 317 316 316 316 316 316 317 320 323 325 325 323 323 325 326 326 329 329 328 328 321 312 312 314 313 313 313 311 311 311 312 312 312 312 311 311 312 311 311 310 310 310 309 309 309 309 309 309 309 308 308 308 310 311 313 315 317
325 323 322 322 322 322 322 322 320 319 319 319 318 319 319 319 320 321 320 319 319 320 321 319 320 321 318 317 317 317 316 316 316 317 317 318 323 325 325 324 322 321 323 324 324 327 327 328 331 326 314 312 314 313 312 312 311 311 311 311 311 312 312 311 311 311 310 310 309 308 307 307 306 306 306 306 306 307 308 308 309 310 311 312 313 315
323 323 323 322 323 324 323 322 321 320 320 319 318 318 319 319 319 319 319 319 318 319 318 318 322 322 318 318 317 316 317 318 317 318 319 320 323 324 323 323 322 319 320 322 323 325 325 327 330 325 313 310 313 312 311 311 311 310 311 310 311 311 311 311 310 310 310 308 307 306 306 305 305 304 305 306 307 308 309 311 311 312 313 313 314 315
323 324 324 322 323 325 324 323 322 321 320 320 319 318 318 319 319 318 318 318 318 319 318 317 320 319 317 319 319 317 319 320 319 319 318 318 321 322 322 321 319 317 317 319 321 322 323 323 326 326 317 312 312 311 310 310 310 310 310 310 310 311 310 310 310 310 309 308 307 306 305 305 305 305 305 307 308 310 311 312 312 313 314 315 315 316
322 324 324 323 323 324 324 324 323 321 321 321 320 319 318 319 319 318 318 318 318 318 318 319 319 318 317 320 320 318 320 320 319 318 317 318 320 321 321 319 318 317 317 318 319 319 320 320 323 327 321 313 311 311 310 309 309 309 309 309 309 310 310 310 310 309 309 308 307 306 304 304 305 306 307 308 309 310 311 312 312 313 314 314 315 315
322 324 324 323 324 325 324 323 323 323 323 322 320 319 318 318 318 318 318 318 317 317 318 318 318 317 319 321 320 319 320 320 318 317 316 317 318 319 319 318 317 316 315 317 317 317 316 317 316 316 314 312 312 311 308 309 309 309 308 308 308 309 309 309 309 309 308 307 306 305 304 304 305 306 307 308 310 311 311 312 312 313 313 313 313 313
320 323 323 323 324 326 324 322 323 324 324 323 320 318 318 318 318 319 319 318 317 317 317 317 316 316 317 321 321 320 319 317 317 316 315 315 316 316 317 317 317 316 315 316 316 315 315 313 310 309 310 311 312 311 309 309 309 308 308 308 308 308 308 308 308 308 308 307 306 305 305 304 305 307 308 309 310 311 311 311 311 311 312 312 312 312
319 321 322 323 324 324 322 321 323 325 324 323 321 319 317 317 317 318 319 318 317 317 317 316 316 316 317 319 320 320 320 318 318 317 316 315 315 315 316 317 317 316 315 314 314 315 315 311 307 308 310 311 311 311 310 309 308 308 308 307 307 308 307 307 307 307 307 306 305 305 305 305 306 306 308 309 310 311 311 311 311 311 311 311 311 310
319 320 321 322 322 321 320 321 325 326 323 320 321 319 317 317 318 319 319 318 317 317 317 317 316 316 317 318 318 320 321 320 319 318 315 315 316 317 317 317 317 317 317 314 313 313 313 310 308 309 310 310 311 311 309 309 308 308 307 307 307 307 306 306 306 306 306 305 304 304 304 305 306 306 307 308 309 310 311 311 311 311 311 311 310 310
318 320 321 322 321 320 321 322 323 326 324 320 318 318 318 318 318 319 320 320 317 317 318 318 317 317 317 317 318 319 321 319 318 317 314 314 317 319 319 318 318 318 316 312 310 310 311 310 311 311 311 310 310 310 309 308 307 306 306 306 306 306 306 305 305 306 306 305 304 303 303 303 304 305 306 307 308 308 309 309 310 310 310 310 310 310
316 318 319 322 321 320 321 322 323 326 326 322 318 317 318 319 319 318 320 320 318 318 318 317 317 317 317 317 318 320 320 319 317 316 315 316 318 320 320 319 318 316 312 309 308 308 310 311 311 312 311 310 310 309 308 307 306 306 306 305 305 305 305 305 305 305 305 304 302 302 302 302 303 305 306 307 307 308 308 308 309 309 309 309 309 308
313 314 315 318 321 320 321 323 323 324 326 323 320 318 318 321 321 319 320 321 319 317 318 318 317 317 317 318 318 319 319 319 317 315 315 317 319 319 319 317 315 313 311 309 309 309 310 311 311 311 310 310 309 308 307 307 306 305 305 305 305 304 304 305 305 305 304 303 302 301 301 301 302 303 305 305 306 307 307 308 307 308 308 308 308 308
313 313 313 316 319 320 322 323 323 323 323 322 321 318 317 319 320 322 323 322 319 317 317 317 317 317 318 318 318 317 316 317 317 316 316 318 317 316 315 314 314 314 311 309 310 311 311 311 310 309 308 308 308 308 307 306 305 305 305 305 304 303 304 305 305 304 303 303 301 300 300 301 301 303 304 304 305 305 306 306 306 306 306 306 306 306
314 314 314 316 318 319 321 323 323 323 322 322 321 317 316 318 321 323 323 322 320 320 319 317 317 317 317 318 316 315 315 316 316 318 320 319 316 315 314 312 311 311 309 308 309 310 310 310 309 308 308 308 308 307 306 305 305 304 304 304 303 303 305 304 303 303 302 302 301 299 299 299 300 301 302 303 304 304 305 305 305 305 305 304 303 303
316 315 315 316 317 319 320 321 323 323 323 323 321 316 316 320 321 321 321 321 324 324 319 317 318 317 317 318 316 315 315 315 316 318 320 321 317 314 313 312 311 310 309 308 309 309 308 307 307 306 307 307 306 306 306 305 304 303 303 302 303 304 303 303 302 302 302 302 300 298 298 298 299 299 300 302 303 304 304 304 304 304 304 303 302 302
317 317 316 316 317 319 320 320 322 323 323 321 319 316 317 320 321 321 321 322 326 329 325 320 319 318 317 317 317 316 317 316 315 315 316 317 316 314 313 313 312 310 308 306 307 308 307 305 304 304 305 305 304 305 305 304 302 302 302 302 302 303 302 302 302 302 301 301 300 298 297 297 297 297 298 300 301 302 303 302 303 303 302 302 301 301
316 317 318 317 316 318 319 319 321 322 321 318 317 317 317 318 320 322 323 321 322 328 329 324 321 320 319 317 317 317 316 316 316 315 314 314 314 314 315 314 313 311 308 305 305 307 307 304 303 303 303 303 303 303 303 303 302 301 301 302 302 302 301 301 301 301 301 300 300 299 297 296 296 296 297 298 300 300 300 300 300 300 300 299 299 298
316 317 318 318 316 316 318 318 318 321 321 318 317 318 317 316 319 321 322 322 321 324 327 328 326 324 321 318 318 318 316 316 316 315 315 314 314 314 314 314 311 308 305 303 303 305 305 303 302 301 301 301 302 302 302 302 302 301 301 301 301 301 301 301 300 300 300 299 299 298 296 294 294 295 295 297 298 299 299 298 298 298 297 297 296 295
315 315 315 317 317 315 315 315 315 317 318 317 317 319 319 319 319 318 319 322 324 324 326 330 330 328 324 321 320 319 318 317 316 316 315 314 313 313 313 313 312 307 304 303 302 302 303 302 301 300 299 299 300 301 301 301 301 301 301 301 300 301 301 301 300 299 299 298 297 297 295 293 293 293 294 295 297 297 297 298 297 296 295 295 295 294
315 315 314 316 317 317 316 315 314 314 315 315 315 317 318 319 319 317 317 322 324 323 324 324 323 323 322 320 319 319 318 317 317 317 315 313 315 315 314 315 315 310 304 303 302 301 301 300 298 297 296 297 297 299 299 299 300 301 301 300 300 300 300 300 300 298 297 297 296 295 294 293 292 292 293 294 295 295 295 296 296 296 295 295 295 294
315 315 315 315 316 316 316 315 314 314 314 314 314 314 315 317 317 316 317 319 318 317 317 315 314 315 316 317 318 318 318 317 316 316 314 314 316 316 313 314 315 310 302 300 300 300 300 298 297 296 295 294 296 297 297 298 299 300 300 300 299 299 299 299 298 298 296 296 295 295 294 294 293 293 292 292 293 293 294 294 294 294 294 294 294 294
314 315 316 316 315 315 315 315 315 316 316 314 313 313 314 316 316 315 315 315 315 316 318 317 315 314 316 319 318 317 318 317 315 315 315 314 314 314 312 312 310 304 299 298 298 298 299 297 296 296 294 293 294 295 296 297 297 298 299 299 298 298 298 297 297 296 295 295 295 294 293 293 294 293 293 292 291 292 292 293 293 293 293 293 293 293
315 314 315 316 315 315 315 314 314 315 315 314 313 313 315 316 315 315 316 317 317 318 319 318 315 311 310 312 312 313 315 316 314 313 313 313 313 312 311 310 306 298 295 296 297 296 297 297 296 295 294 292 293 294 294 294 295 296 297 297 297 298 298 297 296 294 293 294 294 293 292 292 292 292 293 292 291 291 290 291 292 292 292 292 292 291
313 313 314 314 314 314 314 313 314 315 314 314 315 315 314 314 315 316 316 316 315 314 313 313 312 310 310 310 310 311 314 315 312 310 311 313 312 308 305 304 305 301 295 294 295 295 295 295 295 294 292 291 291 292 292 293 294 295 295 296 296 297 297 297 295 293 291 292 293 292 292 292 291 291 292 292 291 291 291 290 290 290 290 290 290 290
Wind_Speed
6 5 6 8 9 12 13 13 11 10 8 8 8 8 7 6 5 4 5 7 9 7 7 10 10 11 9 9 9 8 9 10 11 10 9 8 7 7 8 8 9 9 9 13 18 20 22 24 25 25 24 25 26 26 27 28 28 29 29 28 29 31 30 28 28 29 29 30 30 28 29 29 28 27 27 27 28 28 27 27 26 26 26 26 26 26
6 8 8 9 11 12 14 13 13 13 7 4 5 7 7 7 4 2 5 6 4 2 5 7 9 11 9 8 9 8 10 11 11 11 11 11 9 8 8 9 8 7 8 11 15 18 22 24 26 26 25 26 27 28 29 30 30 30 30 31 30 30 32 32 31 31 31 31 31 30 31 31 30 29 30 30 30 30 30 29 29 29 29 29 29 28
8 9 8 11 11 11 12 12 13 13 9 3 3 4 5 6 3 4 6 5 3 1 3 4 7 9 7 8 9 9 9 9 10 11 12 12 12 11 10 9 9 8 7 9 10 14 20 23 26 26 26 28 29 30 31 31 31 32 32 32 31 31 33 35 34 32 31 30 29 29 29 29 29 29 30 31 31 31 31 31 31 32 32 32 31 29
8 7 11 13 10 11 12 12 12 11 9 4 2 5 3 4 4 2 4 5 4 2 3 3 5 7 7 7 8 9 9 9 10 13 13 11 13 14 12 10 10 10 9 9 9 11 16 20 23 25 26 28 27 28 30 31 31 33 34 34 33 33 33 35 35 34 31 29 27 27 26 26 26 27 27 28 29 30 31 32 32 33 33 33 32 31
5 6 12 14 12 13 13 12 11 8 6 5 5 6 3 4 3 3 4 5 3 3 3 2 4 6 7 8 10 9 10 12 12 13 13 13 12 11 11 11 11 11 11 11 11 10 13 18 22 26 28 27 27 28 30 32 33 33 35 35 34 34 33 33 34 34 32 29 27 26 25 23 24 25 25 27 29 31 32 34 35 35 33 33 33 32
5 10 14 15 13 14 12 11 12 8 5 5 7 8 5 6 3 7 6 3 0 3 4 3 2 5 5 7 9 7 8 12 12 13 15 14 12 10 9 11 11 10 10 11 12 12 13 19 23 26 27 27 28 31 32 33 34 34 34 34 34 34 34 33 32 33 33 32 29 28 28 27 26 27 29 32 33 33 35 36 35 34 33 33 32 32
6 13 16 16 15 15 13 11 12 10 6 4 6 10 8 4 2 6 6 3 1 3 3 4 3 4 5 7 8 5 6 10 10 13 16 13 11 10 10 11 11 10 9 9 11 12 13 18 21 23 27 30 31 34 34 33 33 34 33 33 34 34 34 34 32 32 34 35 33 31 31 31 30 30 32 34 32 32 34 34 33 33 33 33 33 32
10 17 17 18 17 14 12 10 11 12 8 3 3 8 9 4 2 4 5 3 2 0 1 3 2 2 6 8 8 6 9 11 10 12 13 12 12 11 11 11 12 12 11 9 9 10 11 16 21 24 29 33 34 34 32 32 34 35 34 33 34 35 35 35 34 33 34 36 36 33 32 32 33 33 32 30 29 29 30 31 31 31 31 32 33 34
12 18 18 19 15 12 11 9 9 12 8 3 3 5 7 5 3 4 4 3 0 3 1 4 3 2 6 6 6 6 10 14 14 12 10 10 12 12 13 13 13 13 12 11 11 10 10 14 21 26 30 33 33 32 31 33 34 34 34 33 33 35 36 35 35 34 35 37 37 35 33 33 34 34 30 26 25 27 28 28 29 30 31 32 32 34
8 12 15 16 11 10 11 7 9 11 7 3 2 6 6 3 4 4 2 1 1 1 4 5 5 3 5 5 5 5 8 13 12 9 8 9 11 13 13 12 11 9 9 11 11 11 13 17 21 23 26 28 29 29 30 31 31 31 32 32 33 36 36 35 35 35 36 37 37 37 36 36 34 32 29 26 25 26 28 29 28 28 29 31 32 34
1 2 7 10 9 9 8 4 7 10 8 5 5 7 7 4 5 3 1 4 2 3 5 8 9 5 3 5 6 5 7 9 7 6 6 8 10 12 12 10 10 8 8 9 9 10 14 20 23 22 21 23 25 27 28 28 29 30 31 32 34 35 35 35 35 36 37 37 38 39 38 37 35 32 29 27 27 26 27 29 29 29 28 28 30 33
3 3 5 4 3 6 7 2 2 8 10 8 5 6 5 3 4 2 2 4 1 4 4 8 10 9 6 5 6 7 7 8 7 7 7 8 8 8 8 8 8 8 7 8 8 8 9 11 14 18 19 20 22 24 26 27 28 28 29 30 32 33 33 34 34 36 37 37 38 39 38 37 35 32 29 29 29 28 27 28 29 29 29 29 29 31
5 6 5 4 1 5 9 5 3 6 8 6 5 7 5 2 1 1 1 1 4 4 2 4 6 7 8 7 7 10 7 7 7 7 6 6 6 6 5 5 4 5 6 7 7 7 7 7 8 14 17 18 21 23 25 27 27 28 29 30 31 33 33 32 32 33 35 35 36 37 36 35 33 31 31 31 30 30 30 29 29 29 31 31 31 32
4 2 2 5 1 5 11 9 5 5 7 7 7 7 6 4 3 4 4 2 4 3 2 1 1 2 5 4 10 16 16 10 7 7 7 6 5 5 5 6 6 5 6 6 6 6 6 7 10 14 17 18 21 24 25 26 27 28 29 29 31 32 31 29 30 31 31 33 34 33 32 32 32 32 32 32 31 31 31 31 30 30 31 32 33 33
9 2 5 10 6 8 12 11 9 6 6 7 5 5 6 5 4 5 4 3 3 0 2 1 2 3 3 2 9 14 15 10 4 5 8 7 5 5 5 6 6 5 5 5 6 7 7 9 13 15 17 19 22 23 24 25 27 28 29 30 30 30 29 28 29 29 30 31 32 32 32 32 32 32 33 33 32 31 30 30 31 30 31 32 33 33
11 5 8 9 4 12 14 8 9 9 5 5 3 5 6 4 3 2 2 3 4 2 1 3 3 4 4 5 7 6 7 7 5 5 7 8 6 6 5 5 6 5 6 6 6 7 7 10 13 15 16 18 19 20 22 24 25 27 28 29 29 29 28 27 29 30 31 31 31 31 32 32 31 31 31 32 32 31 29 28 29 30 31 31 31 32
10 4 10 7 1 11 13 8 12 11 6 5 5 7 5 1 4 3 1 0 2 1 3 4 4 4 2 7 9 9 8 7 7 7 8 8 7 7 6 6 6 6 7 7 7 7 7 9 12 14 15 17 18 19 21 22 22 23 23 24 24 24 24 24 25 27 28 28 28 28 29 29 29 29 29 30 30 30 29 29 29 29 30 31 32 31
7 1 3 7 5 8 4 5 10 7 4 6 7 7 4 4 3 2 1 0 1 3 3 4 6 4 2 5 6 9 10 8 8 8 7 7 7 7 7 7 7 8 8 8 7 6 7 9 11 13 14 15 15 16 17 17 18 18 19 19 20 20 21 22 22 23 25 25 25 26 26 27 28 28 29 29 28 28 28 30 31 30 30 31 32 32
9 4 3 4 7 7 1 5 8 4 1 4 5 6 5 0 2 3 3 2 4 5 4 4 7 5 6 5 2 6 10 8 8 8 7 8 8 8 7 7 8 8 7 7 6 6 6 8 11 13 13 12 12 12 13 14 15 16 16 16 17 17 18 19 20 21 23 23 24 25 25 26 27 28 28 28 28 28 28 28 29 29 30 29 29 30
9 6 0 3 3 6 4 5 9 7 2 0 3 6 5 2 3 5 3 2 3 4 4 3 3 4 7 7 6 8 10 10 10 8 8 9 9 9 8 7 8 7 7 7 7 7 6 8 11 12 12 12 13 12 12 13 13 14 14 14 14 14 14 15 17 18 20 21 22 23 24 25 26 27 27 27 27 27 28 28 27 26 27 28 28 29
7 6 4 1 1 5 7 7 11 13 9 5 6 9 7 3 1 2 3 2 2 3 3 4 4 5 5 6 10 11 11 11 11 8 8 8 8 8 7 7 6 6 7 7 6 7 6 7 10 11 11 13 13 12 12 11 11 11 12 13 13 14 14 16 17 18 19 20 21 22 24 25 26 26 26 26 26 26 26 27 27 25 24 24 25 26
7 6 7 5 4 8 9 6 5 8 10 8 7 8 8 5 3 2 4 5 3 2 3 3 5 7 5 3 7 9 8 9 10 8 7 7 7 7 6 7 7 6 7 7 6 6 6 7 10 11 11 12 12 12 11 11 10 10 10 11 12 14 15 16 17 18 19 20 21 22 23 23 24 24 24 24 24 25 25 24 24 24 23 22 22 23
5 4 7 6 5 4 3 2 3 2 6 8 5 5 7 6 5 6 6 5 4 3 2 1 4 6 5 0 3 5 4 5 7 8 7 6 7 7 6 7 7 6 6 6 6 6 6 8 11 12 12 11 11 11 11 11 11 11 11 11 12 14 15 15 15 16 18 19 20 21 20 20 21 21 23 23 23 24 25 24 24 23 23 23 23 23
5 5 7 5 2 2 3 2 4 5 3 6 7 7 8 9 10 7 4 3 4 5 3 3 5 6 5 4 4 4 5 5 3 6 8 7 6 6 7 7 7 6 6 6 6 6 6 8 10 11 11 12 12 12 12 13 13 13 12 13 14 14 15 14 14 14 15 16 18 18 18 18 19 20 21 22 23 24 24 25 25 25 25 25 25 25
3 6 9 7 4 2 3 2 1 2 4 7 10 11 10 11 11 7 3 1 2 5 6 5 7 7 4 4 4 3 5 6 2 3 6 7 6 7 7 6 6 6 6 5 6 6 6 7 7 8 11 13 13 14 14 14 14 14 14 14 14 14 14 15 15 15 15 15 16 17 18 18 18 19 20 21 21 22 22 22 23 24 25 25 26 26
4 7 9 11 11 9 8 9 8 8 7 6 8 12 14 14 12 9 5 3 4 7 7 6 9 8 1 3 4 1 4 5 5 5 5 5 6 6 6 6 5 6 6 6 6 6 6 6 6 8 12 13 14 15 15 15 14 14 13 13 13 13 14 15 15 15 16 16 16 17 18 19 20 20 21 21 21 21 20 20 21 21 22 23 24 25
3 6 10 12 13 14 12 8 7 8 8 8 10 13 15 14 12 9 5 7 10 8 4 7 13 11 4 4 6 5 6 6 6 6 5 5 5 5 6 5 5 6 6 6 6 6 7 7 7 8 11 14 14 14 15 14 14 14 14 13 13 13 14 14 14 14 15 15 16 17 17 18 19 19 20 20 20 20 19 20 20 21 21 21 22 22
4 6 12 13 14 14 9 7 11 12 12 15 15 15 16 15 14 11 11 14 12 6 7 15 17 15 13 8 7 7 8 7 6 7 7 7 6 6 6 6 6 6 6 6 7 7 7 8 7 8 11 14 14 14 14 14 14 14 14 14 14 15 15 14 13 14 14 14 15 15 16 15 15 15 15 15 15 15 15 16 17 18 19 20 20 20
5 8 13 13 13 11 9 10 14 14 13 15 17 17 17 18 18 17 18 18 13 8 15 19 14 15 18 11 9 9 8 8 8 7 7 6 7 7 7 7 7 8 8 8 8 8 8 8 8 8 11 14 15 15 14 14 14 14 15 15 16 17 16 15 15 14 14 14 14 14 13 12 11 11 11 11 11 11 11 11 11 13 14 16 17 18
6 9 11 11 11 10 10 12 13 14 13 13 17 18 18 18 21 22 20 19 15 14 21 20 11 15 19 11 10 11 8 7 5 5 6 7 8 8 8 9 8 8 8 8 8 8 8 8 8 8 10 13 15 16 16 17 17 17 17 17 17 18 17 16 16 15 15 15 15 13 11 9 9 8 8 8 9 9 9 9 10 10 12 13 14 15
6 10 11 10 8 8 10 12 13 15 15 15 17 19 18 18 19 22 22 19 16 18 25 21 14 18 16 8 8 9 7 6 5 7 7 8 8 9 9 9 8 8 8 8 8 9 8 8 8 8 9 13 17 19 19 19 18 18 18 18 18 18 17 17 16 16 17 16 14 12 10 8 8 7 6 7 8 8 9 9 10 10 11 12 12 13
7 8 8 8 7 9 11 14 14 13 12 12 15 18 21 22 21 22 23 19 16 19 22 19 16 17 10 5 7 6 6 8 8 9 9 8 9 10 10 9 9 9 9 9 9 10 10 10 10 9 10 15 18 20 20 19 18 18 18 18 19 18 18 18 18 17 17 16 13 11 10 8 7 6 6 7 8 9 9 9 10 9 10 10 11 12
8 8 6 7 9 11 11 11 10 9 8 9 15 22 27 27 23 20 18 17 18 20 18 15 18 16 4 5 7 8 8 10 10 10 9 9 10 10 10 10 10 10 11 11 11 12 12 10 10 12 16 19 21 22 21 19 19 18 18 18 18 18 18 19 19 18 17 15 13 12 11 9 7 7 7 8 8 8 8 8 9 9 9 9 10 11
9 9 6 7 9 10 9 10 7 8 12 12 14 21 25 24 22 20 19 20 20 19 16 16 20 16 5 5 9 11 11 11 9 9 10 10 10 10 9 10 10 10 11 11 12 13 11 10 11 16 20 22 23 22 19 17 17 17 17 17 17 18 19 19 19 18 17 15 14 14 13 11 9 9 9 9 9 8 8 8 8 8 8 8 9 10
10 10 5 6 7 5 8 10 6 11 14 8 4 12 17 19 21 22 22 22 22 23 24 25 24 17 10 10 10 9 10 10 8 11 12 11 11 10 10 9 9 10 11 12 14 13 10 10 12 15 19 21 22 21 19 18 18 17 17 18 18 19 18 18 19 18 17 17 16 16 15 13 12 11 11 10 10 9 9 8 9 8 8 8 8 9
7 9 6 4 4 3 6 9 8 6 4 2 2 11 15 17 18 17 19 24 25 25 24 24 23 18 14 15 12 8 8 8 7 11 15 14 11 9 9 9 9 10 13 14 13 12 13 16 19 21 23 23 23 23 22 21 20 19 19 19 19 19 18 18 19 18 18 18 18 17 16 15 14 13 12 12 11 10 9 9 9 9 8 8 8 9
4 6 7 6 5 4 5 8 5 1 2 1 6 11 14 15 16 14 15 21 19 16 15 18 22 20 17 16 13 8 6 5 8 14 17 14 11 10 10 9 11 14 16 15 15 16 20 24 26 27 26 24 25 27 26 23 20 21 21 20 19 19 18 19 20 19 19 18 18 17 16 15 14 13 13 12 11 11 10 9 8 8 8 9 9 9
4 3 4 5 6 5 5 6 5 5 7 11 15 14 11 8 9 11 11 15 11 13 18 23 25 23 20 18 13 8 6 5 12 17 12 11 9 8 9 11 15 17 16 15 16 18 21 24 25 26 26 25 26 28 26 23 22 23 23 22 21 20 20 20 21 21 20 19 17 16 15 15 14 13 13 12 11 11 10 10 10 9 8 9 9 9
6 3 1 2 4 7 8 8 8 8 11 15 15 12 10 8 10 11 5 13 15 20 24 24 25 25 20 15 11 8 7 9 17 13 7 12 11 11 13 16 20 20 19 20 20 20 23 25 24 23 24 24 26 27 25 24 25 25 25 24 23 22 22 23 23 21 19 17 15 15 15 14 14 13 13 13 11 10 10 9 9 9 9 9 9 9
6 3 1 2 3 5 9 9 6 6 10 10 8 12 14 13 13 12 5 17 21 22 22 22 24 23 16 11 10 10 11 16 16 6 10 14 15 15 17 20 21 20 20 21 23 22 23 24 22 21 23 26 27 27 26 26 25 26 26 25 24 23 24 23 21 18 15 13 12 13 14 14 14 14 14 13 11 10 10 9 8 8 9 9 9 10
4 3 3 4 4 4 8 8 5 5 7 3 8 14 17 16 11 9 16 18 13 10 17 21 22 18 14 13 11 11 16 19 12 7 12 15 15 16 18 20 23 25 23 23 26 24 21 22 24 24 26 28 28 27 28 28 27 26 25 23 23 24 24 20 16 14 13 11 11 12 14 14 14 14 14 13 12 11 11 10 9 8 8 8 8 9
3 2 2 5 4 3 4 4 3 5 5 5 13 16 17 14 10 15 14 6 3 9 15 18 19 15 13 14 14 14 16 17 12 10 12 13 16 18 18 17 20 24 22 21 23 22 20 20 21 22 24 25 26 28 30 30 28 26 23 22 23 23 19 16 14 14 13 12 12 13 14 15 15 15 14 14 14 13 13 11 10 9 8 8 8 7
5 4 3 4 4 2 3 5 4 6 5 10 16 14 13 13 11 8 2 7 5 8 11 10 12 12 12 14 16 17 17 17 16 14 14 14 15 14 12 14 17 19 17 15 17 21 22 20 19 22 24 24 26 28 30 30 27 24 22 22 22 20 17 16 16 15 14 14 14 15 16 16 16 16 16 16 15 14 13 13 11 11 10 10 9 8
5 5 3 4 5 4 5 7 6 3 3 11 15 12 13 11 2 4 1 3 2 5 7 6 7 9 11 13 15 16 17 17 16 15 13 13 13 12 11 14 16 15 14 14 19 24 25 22 20 21 21 22 24 26 28 29 27 23 22 23 21 20 19 19 17 17 16 16 15 15 16 16 15 15 16 15 15 14 13 13 12 11 11 10 10 9
7 9 6 4 5 6 6 7 6 3 3 9 12 10 12 11 3 5 3 3 2 3 5 7 7 8 10 12 12 12 13 14 14 14 13 13 14 14 14 15 14 12 13 14 18 23 24 22 20 19 19 20 23 25 26 29 28 25 24 24 23 23 22 21 20 19 19 18 16 15 16 16 15 14 14 14 14 14 13 12 12 11 10 9 9 8
8 11 8 4 3 6 9 10 9 9 8 9 9 6 6 10 7 2 2 2 4 5 5 6 8 9 10 11 11 10 12 13 13 14 15 14 13 12 11 11 10 10 12 13 15 19 21 19 18 19 19 18 21 23 25 27 28 26 26 26 24 23 22 22 22 21 20 19 17 16 16 16 15 13 13 13 12 12 11 11 10 9 8 7 7 6
5 7 7 5 4 6 9 11 13 16 15 10 8 9 8 6 3 2 3 3 3 4 4 3 4 6 8 10 11 11 13 13 13 14 13 11 9 9 10 10 9 9 11 13 16 20 20 17 16 17 18 18 19 22 23 23 23 24 24 25 24 22 22 22 22 21 21 20 18 16 15 16 16 14 13 12 11 11 10 9 9 8 8 7 7 7
5 7 7 7 8 8 11 12 13 15 14 12 11 11 10 6 2 3 3 2 0 1 1 2 1 3 6 8 10 11 12 12 13 13 12 9 8 8 9 10 9 10 11 14 17 20 20 18 17 17 18 18 19 20 20 20 20 20 23 24 23 22 22 22 21 22 21 20 19 17 15 15 15 15 14 13 12 11 11 10 10 10 9 8 8 8
6 7 6 7 9 10 12 14 11 8 11 16 16 10 4 2 2 1 2 2 0 2 3 3 4 6 7 9 10 11 12 13 12 12 11 9 8 8 8 9 9 10 12 15 18 21 21 20 20 20 19 18 19 20 20 18 18 19 21 22 23 23 23 23 22 21 21 20 19 18 16 15 15 15 15 15 13 11 9 8 8 9 8 7 6 7
6 6 6 7 9 10 12 16 14 9 11 16 14 10 8 7 8 7 7 7 8 8 8 7 7 4 4 6 6 7 10 12 11 9 9 8 7 8 9 8 8 9 12 15 17 18 18 18 19 20 19 19 20 21 21 19 19 19 20 21 22 23 23 24 23 22 21 20 20 19 18 17 16 15 15 16 16 14 11 8 6 6 6 6 6 6
7 8 8 8 10 11 15 18 13 9 12 14 8 10 13 12 10 11 11 10 10 10 8 7 6 6 7 7 5 7 10 12 9 7 7 8 7 8 9 11 10 10 12 15 15 14 14 16 19 21 21 21 22 23 22 21 20 19 20 21 21 21 23 24 24 23 21 20 20 20 19 19 18 16 15 16 15 14 13 11 8 6 5 5 5 6
Wind_Direction
157 165 196 195 188 188 193 202 208 209 198 199 202 198 218 231 231 206 152 163 178 183 206 215 235 245 241 238 231 217 206 213 219 219 225 225 222 218 208 200 199 205 211 207 205 201 197 200 200 198 199 198 198 200 200 201 202 202 203 203 204 205 204 204 206 208 209 209 210 211 212 212 211 211 214 217 219 221 222 221 221 221 223 227 230 230
167 196 203 188 186 189 195 201 212 221 217 216 216 203 207 221 233 144 132 165 168 174 221 221 242 249 243 243 238 222 215 218 215 215 219 222 224 222 214 209 204 203 203 201 204 199 193 194 196 197 197 196 196 198 200 202 203 203 204 205 205 205 206 206 207 208 210 210 210 211 214 215 214 214 215 218 220 221 222 222 222 221 223 225 228 230
189 213 191 180 188 191 203 210 213 225 231 237 260 237 210 200 186 98 115 148 121 87 247 251 266 262 253 249 243 231 229 228 217 217 220 218 223 225 219 213 211 210 201 194 198 194 190 189 191 193 196 198 199 199 200 202 203 204 205 206 206 206 208 209 209 210 212 213 213 214 216 216 216 217 219 221 223 223 222 221 222 223 224 225 225 226
192 205 177 176 194 196 204 216 214 225 234 209 229 256 234 186 193 156 149 149 135 215 285 325 293 278 272 266 257 240 238 243 230 227 227 219 221 224 222 217 211 208 202 193 194 192 190 188 188 192 197 200 201 201 202 203 203 204 206 207 207 207 209 211 211 211 212 214 216 218 221 221 222 222 224 227 228 227 225 224 224 225 225 224 224 223
177 164 168 175 197 203 198 211 213 217 225 196 207 239 229 212 212 104 135 153 146 238 269 325 306 280 251 243 250 240 230 238 236 232 233 226 222 222 222 226 221 212 202 193 194 195 190 189 192 196 200 201 201 203 205 205 204 206 208 209 208 208 209 211 212 211 210 212 215 218 220 223 224 224 223 225 226 225 225 226 226 227 226 225 225 223
181 158 169 179 196 206 201 208 210 207 219 206 212 227 238 248 204 114 132 143 78 260 202 168 273 280 253 236 242 235 218 230 232 229 233 230 223 221 220 227 231 225 210 196 195 195 191 192 195 198 199 199 201 207 209 208 208 208 210 210 209 210 211 212 213 212 209 208 211 212 212 213 214 215 217 219 220 220 222 226 227 227 227 226 227 227
184 167 174 184 191 202 207 212 207 201 214 225 209 209 222 261 76 122 145 132 245 258 178 168 217 270 300 280 263 276 256 241 230 224 228 227 221 218 219 222 225 227 220 207 199 194 190 190 192 196 198 199 204 210 211 209 210 211 210 210 210 210 212 212 212 212 211 209 210 210 211 211 211 214 218 220 220 220 222 224 225 226 227 226 227 228
178 174 178 185 188 197 209 211 200 193 197 242 234 189 194 201 112 137 158 176 220 69 158 211 200 265 285 273 264 281 282 270 249 231 224 217 216 216 220 220 218 221 219 214 208 199 192 187 188 194 198 202 209 211 208 207 210 211 210 210 210 211 212 212 211 211 212 211 210 211 213 215 217 220 223 223 222 223 223 223 224 225 226 227 226 227
177 184 184 183 187 196 206 205 180 175 182 251 265 168 168 184 155 133 149 213 257 60 249 217 149 249 262 262 253 234 252 263 252 238 223 210 212 214 219 221 218 220 219 217 218 214 207 197 193 195 200 206 210 208 206 208 210 210 210 210 210 211 212 212 210 210 212 213 212 212 214 218 221 224 226 226 225 224 223 223 225 226 226 226 226 226
183 194 187 183 193 195 196 192 165 170 186 236 197 108 90 92 95 99 147 172 59 2 232 190 158 223 258 255 243 209 227 249 248 239 228 212 209 212 217 221 218 216 216 216 218 218 217 215 209 203 203 206 207 207 208 209 209 209 210 210 210 212 213 212 211 210 212 214 213 213 215 219 222 224 225 225 226 226 223 222 223 223 223 224 225 227
172 185 188 187 198 187 174 178 170 168 164 145 124 94 76 63 71 68 28 67 52 267 212 179 176 192 257 242 217 210 218 229 236 232 234 226 213 211 212 214 217 213 209 208 210 215 214 215 214 208 202 202 203 206 207 208 208 209 210 210 212 214 213 212 212 211 213 214 214 215 216 219 221 222 221 222 224 224 222 221 221 220 221 224 226 226
130 144 185 172 176 158 132 114 132 143 146 138 131 116 99 69 60 51 23 69 221 247 191 186 184 183 228 233 217 242 220 198 213 212 227 237 215 201 198 201 213 209 197 194 195 200 195 193 197 196 194 193 195 200 203 206 208 208 209 211 213 215 214 213 212 212 214 214 216 218 218 219 221 220 220 221 222 222 221 222 223 223 223 226 228 227
161 177 169 94 31 155 133 115 87 136 159 156 146 140 129 116 101 176 187 169 230 245 231 212 187 194 234 238 247 272 249 195 205 208 225 238 193 150 145 153 156 154 154 166 177 179 176 172 178 187 190 189 191 197 202 205 207 208 210 210 213 216 216 214 214 215 216 217 218 221 221 221 221 220 221 222 222 222 221 222 223 223 223 224 225 225
157 273 176 141 182 181 161 159 162 169 177 176 164 157 160 160 172 205 199 209 236 248 271 246 135 238 270 247 227 245 247 228 212 208 213 222 187 144 137 142 132 135 148 157 168 175 183 192 192 194 197 195 197 202 204 206 208 209 210 211 214 218 217 216 216 217 219 221 222 224 224 225 224 223 224 224 224 224 223 222 223 223 223 223 223 224
169 237 197 175 168 178 185 180 162 147 164 185 171 158 180 180 185 196 184 203 209 66 313 251 162 196 210 231 215 226 246 249 240 224 204 202 193 146 135 148 148 161 178 175 180 190 194 194 192 194 198 201 204 207 208 210 211 211 212 213 216 220 219 218 218 219 221 223 225 226 227 227 227 228 228 228 228 227 225 224 223 225 226 226 226 226
183 202 176 176 171 172 181 176 145 132 152 201 165 167 206 205 172 161 170 202 166 99 275 223 236 222 204 273 261 236 258 254 245 243 204 191 177 148 157 181 182 195 206 204 205 208 201 190 189 190 193 199 204 206 208 210 211 211 213 214 217 221 220 219 220 221 222 224 225 226 227 228 229 231 231 231 231 230 229 229 228 228 229 228 228 228
188 189 157 158 213 180 177 167 161 158 158 184 188 189 199 106 102 125 225 252 107 216 227 186 250 282 277 282 262 229 238 243 233 231 213 199 173 168 198 205 201 215 219 216 210 202 190 180 184 188 191 196 200 203 207 209 210 212 213 215 218 220 221 220 221 222 223 224 225 227 228 229 229 231 232 233 233 232 232 233 233 231 231 230 229 229
168 94 163 166 161 182 178 127 166 178 140 161 194 183 126 47 50 112 189 123 126 240 241 181 219 239 211 262 254 213 218 229 227 220 212 207 187 190 213 210 204 211 216 215 194 171 169 172 180 188 194 200 203 207 210 211 213 215 216 217 218 220 220 219 220 221 222 224 226 227 228 229 229 230 232 233 234 234 234 233 233 233 234 234 232 231
148 100 327 207 161 168 144 117 167 208 116 161 189 160 133 136 216 171 182 190 184 224 261 221 215 214 209 224 219 198 207 216 226 212 197 202 198 203 217 213 209 208 208 204 174 161 171 180 185 188 192 195 196 201 204 205 209 211 212 214 215 219 220 220 220 220 221 224 226 228 230 231 231 232 233 235 235 235 234 233 235 236 237 238 235 232
157 146 31 265 181 163 172 170 181 189 173 185 189 173 179 209 184 178 193 190 169 204 254 257 220 227 224 206 188 197 198 202 214 207 198 201 198 205 212 206 208 204 195 189 179 181 185 186 190 189 188 185 183 185 188 192 197 197 199 202 203 208 211 213 215 216 218 221 224 228 230 230 231 231 232 234 235 235 235 234 235 237 239 240 237 233
159 156 136 173 193 162 183 203 193 185 179 180 185 183 187 185 128 161 212 213 154 178 232 253 249 256 244 202 197 201 194 197 206 204 205 203 191 192 185 172 179 181 182 186 182 181 176 171 174 175 176 176 176 178 180 184 187 186 190 195 197 199 202 206 209 210 213 215 218 223 225 227 227 227 229 231 232 234 236 236 236 238 241 241 237 233
170 167 145 150 179 186 195 198 181 184 184 181 187 184 181 178 136 139 213 213 190 191 195 210 253 270 266 202 186 189 182 190 198 195 199 193 169 155 143 143 154 160 178 191 180 170 162 156 159 160 163 168 171 174 177 180 182 185 191 196 200 204 208 213 214 215 216 216 218 222 225 228 229 229 230 231 234 236 238 239 237 239 242 242 239 236
132 119 135 143 170 184 182 132 65 93 174 183 202 191 174 177 174 185 208 201 195 215 162 152 278 277 270 266 126 151 152 166 183 171 161 161 149 143 147 155 161 171 181 179 164 159 154 152 156 159 162 167 172 176 181 187 190 195 200 202 206 210 212 217 220 222 223 221 223 226 229 233 235 235 236 236 237 239 241 243 243 242 243 243 243 243
88 104 131 119 103 54 48 43 15 27 106 180 209 202 183 191 197 201 206 163 189 216 174 190 255 262 278 324 33 71 87 88 106 130 134 145 151 158 168 169 172 180 175 160 151 146 141 140 144 152 160 166 173 179 185 192 195 199 204 206 211 215 215 218 220 223 225 225 228 231 233 237 238 239 242 242 242 240 241 244 245 246 247 248 249 249
163 148 143 131 142 133 81 89 246 232 202 201 205 202 197 198 196 209 244 185 218 223 177 186 242 243 265 319 348 45 97 110 119 148 149 157 168 173 170 167 171 171 165 165 163 150 143 143 149 163 173 178 183 187 190 195 198 201 207 211 216 219 219 222 224 224 227 229 232 235 235 237 238 239 242 244 245 244 243 245 245 246 247 248 249 249
172 156 158 162 171 177 177 185 194 198 201 202 194 194 201 203 192 197 223 219 236 225 176 188 242 243 280 316 282 213 145 160 185 197 186 172 176 167 152 155 164 165 175 179 171 163 160 164 176 182 185 188 191 192 194 199 203 207 213 219 223 224 225 228 229 228 231 233 235 237 237 237 237 237 239 242 245 246 244 243 244 245 246 246 247 249
143 173 184 187 190 191 192 182 140 133 159 181 187 190 199 205 196 188 198 214 224 222 194 227 242 244 250 248 241 217 192 200 199 191 195 196 192 174 156 165 171 172 182 174 161 160 163 173 187 189 190 192 192 195 199 204 210 214 218 223 228 232 232 234 234 232 232 234 235 236 238 239 241 241 242 245 246 247 245 241 240 240 242 245 247 249
125 190 192 196 207 203 187 143 128 144 173 186 187 190 193 195 195 196 207 217 215 203 235 238 233 241 245 222 219 229 210 205 207 196 200 201 192 183 174 179 182 177 177 172 168 170 173 187 197 194 194 193 193 199 204 212 219 221 223 226 231 238 238 235 235 233 233 235 236 239 239 241 244 246 247 250 250 252 252 247 243 240 241 243 246 251
150 199 193 191 206 199 165 151 155 166 182 186 185 191 193 190 194 205 215 219 205 194 236 236 217 233 245 223 210 229 213 203 208 194 187 181 170 169 171 181 192 191 191 192 189 187 188 195 198 195 194 192 193 200 206 213 219 221 224 227 229 236 238 235 233 233 235 237 239 243 243 242 246 249 251 253 252 253 256 256 253 250 248 248 248 252
177 197 187 180 196 196 174 166 165 168 176 183 187 191 192 191 198 209 218 219 208 214 239 241 222 237 244 217 201 220 210 202 191 147 148 164 166 173 182 193 203 202 201 199 197 199 199 199 199 193 187 188 193 199 205 211 214 217 222 224 226 230 234 234 234 234 236 237 240 245 246 245 248 251 252 252 252 254 255 256 257 256 256 256 254 256
204 193 178 169 188 204 193 183 176 173 175 183 189 190 190 193 202 212 218 216 208 220 237 239 238 250 248 203 192 212 189 157 138 148 178 189 184 186 192 202 206 204 206 206 204 208 209 207 202 187 183 193 198 201 205 209 213 217 221 224 225 228 230 233 235 236 236 237 239 243 242 240 245 250 251 249 251 255 255 256 258 258 259 262 261 262
201 188 166 160 189 210 200 190 184 175 171 183 191 189 189 195 203 210 215 212 203 216 232 236 238 247 241 171 190 205 163 158 171 182 198 208 200 194 194 200 202 201 203 205 208 213 212 209 202 190 194 200 200 202 205 206 208 213 219 222 225 226 229 231 232 234 236 237 236 235 233 231 235 240 241 244 249 253 256 262 266 266 268 269 269 269
188 182 156 160 196 212 196 176 162 149 158 196 202 194 194 199 204 209 215 215 209 213 223 226 229 235 217 138 195 204 186 192 195 190 198 208 210 205 200 198 198 201 203 202 208 215 215 210 202 198 201 201 201 204 205 203 206 212 218 221 222 222 224 226 228 231 234 233 230 228 228 225 223 225 231 237 244 250 255 264 271 276 278 278 278 277
183 181 166 164 198 212 176 140 126 165 196 218 212 196 195 198 201 209 218 216 213 218 226 233 236 234 211 175 198 202 205 206 200 204 208 204 207 208 202 200 200 203 208 211 213 213 211 212 213 210 207 204 204 205 203 204 210 214 215 215 214 215 218 220 224 227 228 227 225 225 224 220 216 216 220 229 238 244 248 254 263 271 277 283 284 280
181 179 172 169 195 196 143 137 168 206 215 234 194 174 189 201 202 210 223 221 214 217 225 233 238 233 215 212 208 202 217 217 207 218 219 209 207 201 192 201 206 204 212 220 221 217 209 207 212 215 213 209 205 202 201 206 210 207 205 206 207 209 212 216 219 223 224 223 222 222 220 216 214 212 213 221 229 235 240 247 255 262 270 282 288 285
191 181 169 164 180 147 141 170 196 215 239 332 110 158 180 203 204 207 228 231 220 217 223 233 241 237 224 225 221 208 222 231 231 233 225 213 203 182 176 197 208 211 219 220 217 211 205 206 209 212 213 209 202 200 205 209 206 200 199 201 203 205 208 212 217 220 222 222 221 221 218 215 213 212 212 216 222 228 236 244 250 255 260 267 276 281
241 194 176 178 181 154 163 186 200 304 350 221 205 184 181 197 197 194 228 239 224 214 225 237 242 239 229 228 226 210 204 221 250 246 228 209 192 175 178 198 211 218 224 222 217 212 209 211 212 213 213 208 201 204 209 208 203 199 197 197 199 202 205 210 216 220 221 222 221 219 216 213 212 212 214 216 220 225 232 240 249 256 259 260 264 271
259 246 197 192 191 169 162 179 204 239 228 215 216 204 180 174 165 169 225 250 225 199 214 226 232 231 225 221 212 185 158 192 244 247 217 177 178 185 193 219 228 228 228 223 218 216 214 214 211 210 210 205 203 207 207 205 203 199 195 196 198 200 203 210 218 221 221 221 219 215 213 211 210 212 216 218 221 225 230 237 245 252 258 261 266 269
227 258 293 188 189 180 180 191 201 214 227 228 217 189 153 128 116 122 206 257 234 207 209 219 226 226 222 212 189 152 145 208 242 247 156 142 177 196 206 227 236 237 235 227 218 215 217 216 211 207 204 201 202 204 204 203 201 195 194 197 198 199 204 212 219 221 221 222 217 211 210 209 209 211 214 217 221 226 232 240 247 253 256 259 265 269
207 210 200 203 209 189 190 203 207 219 242 240 191 154 147 137 112 107 200 252 243 217 204 212 224 224 214 193 171 165 190 220 236 216 139 161 191 200 207 221 231 235 236 229 222 220 217 210 200 193 195 200 203 202 200 198 195 194 197 198 196 200 208 216 219 218 218 217 210 205 205 205 206 209 211 213 215 218 226 236 245 255 260 258 259 262
198 193 194 201 215 204 201 212 220 239 254 225 140 144 141 126 117 166 215 242 249 193 185 207 221 219 200 184 182 194 214 227 225 167 158 181 197 205 212 219 225 231 231 225 223 221 210 199 196 195 200 204 204 199 195 192 191 195 199 196 196 205 212 214 212 207 204 202 196 194 197 199 203 206 207 208 208 209 215 221 227 240 252 254 253 256
184 187 196 193 197 194 203 221 244 256 248 145 138 146 139 139 187 211 217 261 27 127 169 202 214 208 192 190 201 213 225 232 223 191 185 195 202 210 216 218 225 233 233 227 223 217 205 197 198 202 204 204 201 198 194 191 191 195 196 195 201 207 206 199 195 191 188 187 183 183 187 193 198 200 200 201 202 204 208 210 213 222 231 238 242 247
180 180 195 195 188 168 187 196 209 248 228 144 139 151 163 181 210 219 260 347 24 129 160 191 205 200 189 193 208 217 225 231 226 214 210 214 219 221 219 218 226 233 229 218 213 209 203 199 200 203 204 200 198 197 194 191 191 192 193 197 201 199 191 185 184 180 177 176 174 176 182 189 192 193 195 197 197 200 203 202 205 212 216 220 222 226
187 183 193 198 187 182 200 204 204 245 198 150 153 176 200 206 200 53 39 300 1 119 143 168 200 197 185 194 209 217 223 230 232 228 225 227 231 231 222 220 227 230 222 209 205 204 200 198 200 201 198 194 194 196 195 194 192 189 192 195 193 185 180 179 176 172 171 173 172 172 177 183 187 189 191 193 195 196 197 196 199 204 208 211 214 216
189 189 202 214 201 200 219 225 221 244 222 186 188 196 207 220 272 39 110 184 181 141 143 159 185 191 187 195 205 213 224 230 233 234 232 228 227 224 221 223 225 221 209 199 197 198 196 195 193 186 183 189 194 196 198 198 193 189 190 189 185 180 177 174 171 170 171 172 171 169 169 172 177 182 185 188 192 193 192 192 194 198 202 206 209 211
195 193 205 224 212 221 241 244 236 242 243 229 233 237 211 219 233 218 166 200 199 182 157 156 179 190 191 193 196 209 223 225 227 232 234 233 230 221 216 221 220 206 193 186 185 188 188 187 183 177 177 186 192 195 198 199 196 193 188 183 180 180 177 171 169 168 168 168 167 166 165 165 167 172 176 180 186 190 191 192 193 194 198 203 208 215
203 188 204 218 190 202 235 239 231 236 239 234 252 274 269 255 242 161 190 237 222 186 166 149 171 194 202 201 199 208 218 218 222 231 235 231 223 211 204 207 206 195 188 185 185 183 177 173 174 175 175 178 186 193 194 193 194 193 186 179 176 176 173 170 167 164 162 163 163 162 162 161 161 164 168 172 179 183 185 191 195 195 198 203 209 216
200 178 193 213 209 218 242 242 233 241 248 236 232 249 259 261 306 69 122 165 82 34 55 70 116 202 215 213 206 210 221 223 222 229 235 228 212 203 200 200 199 195 191 189 185 180 175 174 176 176 173 174 178 181 180 180 184 184 179 175 173 171 168 166 164 160 159 159 159 157 157 157 157 159 163 167 174 179 182 188 194 197 202 208 213 216
171 171 174 190 212 235 251 250 245 258 264 246 234 235 242 198 160 99 107 138 129 317 298 254 219 202 203 213 211 209 221 230 227 226 231 227 210 200 197 195 193 189 186 186 184 181 180 179 176 170 167 167 168 167 166 167 170 171 172 171 170 169 165 160 157 156 154 155 155 153 152 154 155 157 160 162 167 173 177 182 185 189 196 203 210 217
169 191 178 182 212 230 238 239 234 231 249 248 231 209 199 181 172 192 209 205 211 225 227 227 236 246 251 245 227 208 222 240 241 230 230 231 216 199 193 188 184 187 187 184 182 181 180 174 167 160 155 156 160 161 158 157 158 163 167 167 167 168 163 155 151 149 149 153 155 154 156 155 155 158 161 162 165 167 167 169 176 182 192 202 210 220
204 211 198 204 227 234 236 238 230 217 244 256 230 197 206 203 195 211 222 220 225 231 222 218 243 270 273 259 230 203 221 241 241 222 228 239 223 197 187 182 179 184 184 176 169 163 157 154 153 149 146 151 158 157 153 152 153 157 160 162 165 166 162 155 150 147 149 154 156 157 160 159 158 161 162 162 167 170 168 167 169 172 186 203 212 224